User: anonymous   Login
Location: Unspecified
(0.0000°N, 0.0000°E)
Time: 20:27:34
(UTC+00:00)
Language:

OBJECT G - Orbit

View from above orbital plane
View from above orbital plane
View from above satellite
View from above satellite

Ground track
Ground track

The orbit data is extracted from the following two-line orbital elements,

1 44885U 19093G   22268.45381315  .00001692  00000-0  21228-3 0  9997
2 44885  97.8918 347.7678 0013513 221.9273 138.0917 14.83442669149677
Epoch (UTC): 25 September 2022 10:53:29
Eccentricity: 0.0013513
inclination: 97.8918°
perigee height: 609 km
apogee height: 628 km
right ascension of ascending node: 347.7678°
argument of perigee: 221.9273°
revolutions per day: 14.83442669
mean anomaly at epoch: 138.0917°
orbit number at epoch: 14967

The dashed part of the orbit path shows where the satellite is in the earth's shadow,  

DLR